User: anonymous   Login
Location: Hancock Field Station
(44.9202°N, 120.4259°W)
Time: 02:49:40
(UTC-07:00)
Language:

Nadezhda 4 Rocket - Orbit

View from above orbital plane
View from above orbital plane
View from above satellite
View from above satellite

Ground track
Ground track

The orbit data is extracted from the following two-line orbital elements,

1 23180U 94041B   15110.14292610  .00000064  00000-0  49109-4 0  9992
2 23180 082.9459 158.1775 0027395 277.0635 109.8651 13.77883655 44240
Epoch (UTC): 20 April 2015 03:25:48
Eccentricity: 0.0027395
inclination: 82.9459°
perigee height: 951 km
apogee height: 991 km
right ascension of ascending node: 158.1775°
argument of perigee: 277.0635°
revolutions per day: 13.77883655
mean anomaly at epoch: 109.8651°
orbit number at epoch: 4424

The dashed part of the orbit path shows where the satellite is in the earth's shadow,  

DLR